Regional Weather Roundup
Issued by NWS

Home | Current Version | Previous Version | Graphics & Text | Print | Product List | Glossary On
Versions: 1 2 3 4 5 6 7 8 9 10 11 12 13 14 15 16 17 18 19 20 21 22 23 24 25 26 27 28 29 30 31 32 33 34 35 36 37 38 39 40 41 42 43 44 45 46 47 48 49 50
688
ASUS45 KCYS 251510
RWRWY

WYOMING REGIONAL WEATHER ROUNDUP
NATIONAL WEATHER SERVICE CHEYENNE WY
900 AM MDT TUE JUL 25 2017

NOTE:  "FAIR" INDICATES FEW OR NO CLOUDS BELOW 12,000 FEET
WITH NO SIGNIFICANT WEATHER AND/OR OBSTRUCTIONS TO VISIBILITY.

WYZ001-251600-
YELLOWSTONE NATIONAL PARK

CITY           SKY/WX    TMP DP  RH WIND       PRES   REMARKS
LK YELLOWSTONE   N/A     53  48  83 CALM      30.33S
W YELLOWSTONE  NOT AVBL

$$
WYZ002>013-054>058-071-098>099-251600-
NORTHERN WYOMING

CITY           SKY/WX    TMP DP  RH WIND       PRES   REMARKS
JACKSON        CLOUDY    59  43  55 CALM      30.23S
CODY           FAIR      65  46  50 N14G23    30.17R
GREYBULL       FAIR      72  32  23 NW22      30.06R
WORLAND        FAIR      73  43  33 CALM      30.07R
SHERIDAN       FAIR      71  45  39 NW18G28   30.10R
BUFFALO        FAIR      76  48  37 N13       30.12R
GILLETTE       FAIR      78  51  38 N16       30.05R
HULETT         FAIR      79  52  38 E12       30.05R
NEWCASTLE      FAIR      79  45  29 S8        29.99R

$$
WYZ014>020-022>026-101>103-251600-
CENTRAL WYOMING

CITY           SKY/WX    TMP DP  RH WIND       PRES   REMARKS
BIG PINEY      CLOUDY    64  44  48 CALM      30.25S
PINEDALE       CLOUDY    63  45  51 CALM      30.27R
DUBOIS         PTSUNNY   63  34  34 CALM      30.26S
LANDER         PTSUNNY   66  46  48 E6        30.12R
RIVERTON       PTSUNNY   70  41  34 N8        30.13R
CASPER         FAIR      71  45  39 W6        30.13R
DOUGLAS        FAIR      72  48  42 NW9       30.08S

$$
WYZ021-027>030-104>119-251600-
SOUTHERN WYOMING

CITY           SKY/WX    TMP DP  RH WIND       PRES   REMARKS
EVANSTON       CLOUDY    58  56  93 W10       30.29R
KEMMERER         N/A     63  46  55 W10       30.28S
FORT BRIDGER   PTSUNNY   66  50  56 W13       30.29S
ROCK SPRINGS   CLOUDY    66  51  58 S10       30.25R
RAWLINS        FAIR      71  49  45 SW16      30.24R
SARATOGA       CLOUDY    68  50  52 N13       30.27S
LARAMIE        FAIR      70  45  40 NE10      30.25R
CHEYENNE       FAIR      82  43  25 NW12      30.14R
TORRINGTON     FAIR      75  55  49 CALM      29.98R
PINE BLUFFS    FAIR      77  46  33 CALM      30.08R

$$




USA.gov is the U.S. government's official web portal to all federal, state and local government web resources and services.